EHI
15 13 11 9 5 5 7 7 4 3 4 5 5 6 8 8 5 3 5 12 17 18 16 15 14 13 11 10 7 5 4 3 2 1 2 3 3 2 1 0 0 0 0
16 14 13 10 7 7 9 9 7 7 7 8 8 8 10 9 7 5 6 9 14 16 16 15 14 13 12 11 9 7 5 4 3 2 2 3 3 3 2 1 0 0 0
15 16 15 13 11 10 12 10 8 8 7 7 8 9 10 9 9 9 7 8 10 12 13 14 14 13 13 12 10 8 7 6 5 4 4 4 3 3 3 2 1 0 0
15 16 16 14 12 11 11 8 7 6 4 4 6 8 10 11 12 12 10 9 11 12 13 14 14 14 14 13 11 10 9 7 6 6 6 6 5 4 3 3 2 1 0
14 15 15 13 11 9 8 6 6 6 6 4 4 7 12 14 14 12 11 11 12 14 14 15 15 15 15 16 16 15 13 11 10 9 9 8 7 6 5 4 3 1 0
12 13 12 11 10 9 9 8 7 9 9 7 5 7 11 14 14 14 11 11 11 13 16 18 18 16 15 17 18 18 17 15 14 12 10 9 10 9 8 7 6 3 2
11 11 10 10 11 10 9 8 9 10 9 7 5 6 8 10 13 13 11 11 11 11 15 20 21 18 14 14 14 14 16 16 15 12 9 10 11 10 9 10 9 6 4
9 10 11 11 12 11 8 8 9 8 5 3 3 3 4 6 7 8 9 10 11 11 13 17 22 20 16 14 11 10 13 14 12 10 8 9 10 9 9 9 9 8 7
8 10 13 14 13 11 9 8 7 5 3 1 1 0 1 2 4 5 6 8 10 12 12 13 17 21 20 18 15 11 11 12 11 10 8 7 6 7 7 8 8 8 8
11 12 15 17 14 12 11 10 6 3 2 2 1 0 1 2 4 4 4 5 8 12 13 11 13 18 21 22 21 16 12 10 10 11 9 6 5 5 5 6 6 7 7
17 15 17 19 16 13 12 10 5 3 3 3 2 1 2 4 5 4 3 3 5 10 13 13 13 16 19 22 21 16 11 9 9 10 9 6 5 4 3 4 4 4 4
19 18 19 21 19 15 12 8 4 2 3 3 3 2 3 4 4 2 1 2 3 7 12 16 18 18 19 21 19 14 9 7 7 8 7 6 4 3 3 3 3 3 3
19 21 23 25 23 17 12 8 4 3 3 3 3 3 4 3 3 2 2 1 2 4 9 16 21 22 21 21 17 10 6 4 4 4 4 4 3 3 3 3 3 3 3
19 24 27 27 23 17 13 10 8 6 5 4 4 5 5 6 5 5 4 3 2 3 6 12 19 23 24 21 15 9 7 4 2 2 2 2 2 2 3 3 3 3 3
19 24 28 26 22 18 16 15 12 9 7 7 7 7 9 10 9 8 6 5 4 4 5 8 13 19 22 18 12 11 11 7 2 1 1 1 1 1 1 2 3 3 3
22 23 24 23 22 20 21 20 14 10 10 12 10 10 12 12 10 8 7 6 5 6 6 7 8 13 16 13 9 11 12 7 3 2 1 0 0 0 0 1 1 2 3
25 23 20 20 22 23 24 23 18 13 13 15 13 12 12 13 11 9 7 6 5 6 7 6 7 11 13 12 11 12 10 7 4 2 1 0 0 0 0 0 0 1 2
24 22 19 19 21 24 25 23 20 16 14 15 16 14 14 14 13 12 10 7 5 6 7 6 7 10 14 14 14 12 9 7 4 1 0 0 0 0 0 0 0 0 1
22 22 21 20 22 23 23 22 20 17 14 14 16 16 15 15 14 13 12 10 8 7 7 7 8 10 13 14 14 12 10 7 4 1 0 0 0 0 0 0 0 0 0
21 22 21 20 21 22 22 21 20 18 16 15 14 14 14 13 11 10 11 12 11 9 8 8 8 9 10 12 13 13 11 9 6 3 2 2 1 0 0 0 0 0 0
19 21 20 18 18 18 17 17 17 17 17 15 13 12 11 8 6 6 6 8 9 8 7 6 6 6 8 11 12 13 12 10 8 7 6 5 3 2 1 1 0 0 0
16 17 17 15 13 11 8 7 10 14 15 14 12 10 7 4 3 3 3 3 4 4 5 5 4 5 6 9 12 13 11 9 8 8 8 6 5 5 4 3 1 0 0
16 16 15 12 10 7 2 1 3 8 11 12 10 8 6 3 2 3 3 3 4 4 3 3 4 4 5 8 12 12 10 7 6 8 7 4 4 6 6 5 2 0 0
17 17 15 12 10 6 2 0 1 4 8 10 9 8 8 6 3 3 6 8 9 7 4 2 3 3 4 6 9 11 8 6 6 7 8 5 3 4 6 6 3 0 0
17 16 13 12 12 8 3 0 1 4 8 10 9 8 8 7 5 3 6 10 12 11 6 2 2 3 3 3 5 8 7 6 6 7 9 9 7 6 7 7 4 0 0
14 13 11 12 13 10 5 1 1 5 9 10 8 6 4 4 4 4 6 10 12 11 7 4 2 1 1 1 2 5 6 6 6 7 10 11 10 8 8 9 5 1 0
Wind_Speed
1 1 0 1 1 1 2 2 1 1 0 0 1 0 0 1 2 3 4 9 10 9 8 7 6 6 6 5 5 4 5 6 7 6 6 6 6 5 6 6 6 6 5
1 0 1 1 0 1 1 1 1 1 1 0 0 0 0 1 2 3 5 6 8 8 8 7 6 6 6 6 6 5 6 7 7 6 6 6 6 6 6 6 6 6 6
1 1 1 1 0 1 1 1 1 0 1 1 1 1 1 0 2 2 4 4 5 7 8 8 7 6 6 7 7 7 7 7 7 6 6 6 6 6 6 6 6 6 6
1 0 1 0 0 1 1 1 0 0 0 0 0 1 1 1 2 2 3 3 4 4 6 8 7 7 7 7 7 7 7 7 7 7 7 7 6 7 7 7 7 6 6
1 1 0 0 1 1 0 1 1 1 1 1 1 2 2 1 2 2 2 3 3 4 4 6 8 7 7 8 8 7 7 7 7 7 7 7 7 7 7 7 7 7 7
1 0 1 1 1 1 1 1 1 1 1 1 2 1 2 2 2 2 2 2 3 4 4 5 4 5 7 7 7 7 7 7 7 7 7 7 7 7 7 7 7 7 7
0 0 1 0 1 0 1 1 1 2 2 1 0 1 1 2 2 2 2 1 2 2 3 5 4 3 4 6 7 7 7 8 7 7 7 7 7 7 7 7 8 8 8
1 1 1 1 0 0 1 1 1 1 2 1 0 1 1 1 1 2 2 2 2 2 2 4 4 4 3 3 4 7 7 7 7 7 7 7 7 6 7 7 8 8 8
1 0 0 1 1 1 1 1 1 1 2 2 1 0 0 0 1 1 1 2 2 2 2 2 3 4 4 4 4 6 6 6 7 7 7 7 6 7 7 7 7 8 9
1 1 1 1 1 1 0 1 1 2 2 2 2 1 1 1 0 1 1 0 1 2 2 2 2 3 4 4 4 7 7 6 7 7 7 6 6 6 7 7 7 7 8
1 1 1 1 0 0 1 1 1 1 1 2 2 1 1 1 1 1 1 1 1 1 2 3 2 2 3 4 4 6 8 6 5 6 6 6 6 6 6 7 7 8 8
2 2 2 1 1 1 1 1 1 1 1 2 2 2 1 1 1 1 1 1 1 1 1 2 2 2 3 4 5 9 9 8 6 5 5 5 6 6 6 6 7 7 7
2 2 2 1 1 1 1 1 1 1 1 2 2 2 2 1 1 0 1 1 1 1 1 1 2 2 3 3 4 8 8 8 7 6 5 5 5 5 5 5 5 5 6
1 2 2 2 2 2 2 1 1 1 1 2 2 2 2 2 1 1 1 1 1 1 1 1 1 2 2 3 5 8 5 7 7 6 6 6 5 5 5 5 5 5 4
2 2 2 2 2 1 1 2 1 1 1 1 1 1 2 1 1 1 1 1 1 2 2 1 0 1 2 3 6 4 4 8 8 7 7 7 6 6 6 5 5 5 5
1 0 1 2 2 2 2 2 2 2 2 2 1 1 1 2 2 2 1 1 1 1 2 1 1 0 1 2 5 3 3 8 9 9 9 8 7 7 6 6 6 6 6
1 2 2 2 2 2 2 2 2 2 2 2 2 2 1 1 2 2 2 2 1 1 2 2 1 0 0 1 2 2 4 4 5 10 10 10 9 9 8 7 7 7 7
2 2 2 2 2 2 2 2 3 3 2 2 2 2 2 2 2 2 2 2 2 2 1 2 2 1 2 2 2 3 3 4 4 9 12 11 10 10 9 9 8 8 8
1 1 2 2 3 3 3 3 3 3 3 2 2 2 2 2 2 2 3 2 2 2 1 2 3 2 2 1 2 3 4 2 4 5 10 11 11 11 10 10 10 9 9
2 1 2 2 3 2 2 2 3 2 2 2 2 2 2 2 2 3 3 2 2 2 2 2 2 2 1 1 1 2 3 2 3 3 4 6 9 12 12 11 11 10 9
2 2 2 2 2 2 2 2 3 3 2 3 2 2 2 1 2 2 2 1 2 2 2 2 2 2 2 1 1 2 3 3 3 3 2 3 4 5 7 10 11 11 10
2 1 2 1 2 2 1 1 2 2 2 3 2 2 2 3 3 3 3 3 3 3 3 2 2 2 2 2 1 2 2 2 3 2 2 4 3 4 5 6 10 12 12
1 1 2 2 2 1 1 2 3 3 3 3 3 3 4 2 2 2 3 5 5 6 6 4 4 3 3 2 2 3 3 3 4 3 2 4 3 3 3 5 11 12 12
1 1 2 2 1 1 2 3 4 4 4 3 3 3 2 2 2 2 3 3 4 4 5 5 4 4 4 2 3 4 4 4 4 4 3 4 3 3 3 2 9 12 12
1 2 2 2 1 1 3 4 4 3 3 3 3 3 2 2 1 2 3 3 4 4 5 6 6 6 6 5 4 3 3 4 5 4 3 3 3 3 2 2 5 10 11
2 2 2 2 2 2 3 4 4 3 3 3 2 2 2 2 1 1 2 3 4 4 4 4 4 6 7 7 8 6 4 4 4 4 2 2 3 2 2 2 2 4 5
Wind_Direction
150 132 197 212 216 193 192 200 223 207 248 224 264 233 1 98 112 124 140 166 169 174 177 180 185 186 190 192 191 187 186 182 178 177 181 182 178 175 174 167 171 171 170
122 192 231 244 242 231 195 213 220 158 265 214 283 48 21 97 115 135 150 167 174 176 182 183 186 188 190 189 187 178 174 171 170 174 177 176 177 177 175 174 174 176 178
160 201 228 222 222 253 205 210 245 150 225 218 174 191 154 178 160 160 146 156 170 183 187 185 185 186 186 187 185 180 176 174 173 174 173 175 179 181 180 181 181 179 180
169 202 211 224 222 239 220 186 223 312 307 0 158 231 159 175 166 163 157 165 171 174 182 186 186 187 186 187 186 184 182 179 178 179 179 182 186 188 188 186 186 183 182
185 203 162 85 273 261 279 22 65 337 327 330 242 212 186 183 179 179 158 179 175 160 162 180 185 187 188 188 187 186 189 186 185 186 188 191 192 192 192 191 188 186 184
181 214 195 170 287 356 31 54 360 296 270 273 290 271 202 188 185 167 172 180 172 171 161 158 170 189 187 183 185 187 191 186 184 188 192 195 192 190 189 187 186 185 185
202 205 349 125 265 64 44 346 317 280 264 225 303 317 269 212 181 166 170 155 159 171 155 152 161 163 172 189 192 188 190 190 189 190 191 190 189 192 192 192 190 191 193
227 193 168 267 178 146 221 296 317 313 301 288 262 301 309 307 302 165 160 164 166 169 153 160 164 162 160 157 175 185 188 185 190 191 191 191 193 196 197 199 199 198 199
187 273 173 280 287 247 173 220 282 265 291 297 285 222 286 315 304 280 192 158 164 162 162 164 163 160 161 150 154 172 176 183 189 193 192 194 195 197 199 200 202 203 204
176 174 200 272 304 342 51 239 207 281 281 292 291 243 192 169 205 325 330 221 171 167 181 178 154 151 148 141 139 147 163 174 181 185 191 195 200 201 202 204 206 207 209
180 198 187 234 245 315 344 352 6 310 318 312 308 310 305 248 222 213 271 289 281 214 185 168 162 157 150 147 146 152 161 166 172 182 188 193 199 203 206 207 210 214 216
178 190 195 209 197 236 277 275 282 287 295 306 311 313 310 302 272 230 242 253 254 252 201 155 152 159 163 151 159 153 161 163 168 174 183 189 196 202 209 211 213 216 221
180 189 187 172 217 227 243 240 241 271 293 290 287 301 310 307 307 313 263 269 275 264 219 177 172 164 162 137 137 151 159 165 173 180 182 185 193 198 203 211 214 219 224
207 171 174 188 216 245 258 248 236 238 234 266 288 310 306 318 319 308 272 274 292 290 276 227 164 148 151 140 151 160 164 177 180 187 190 192 196 198 200 208 213 220 224
215 182 185 192 198 233 260 274 246 275 261 260 268 281 282 294 291 290 298 294 280 284 282 256 259 145 135 126 156 176 165 180 185 194 199 198 201 205 206 211 215 222 222
311 188 200 199 197 210 224 239 241 235 232 233 239 293 314 315 317 314 308 295 293 265 283 300 295 163 127 148 167 173 167 177 194 198 202 204 203 206 209 213 217 221 223
236 241 240 245 224 219 228 234 245 246 241 248 267 257 257 294 322 314 312 303 283 282 277 294 301 304 158 147 153 195 186 189 195 201 204 204 207 207 209 213 215 217 218
226 223 225 230 240 236 235 238 253 252 254 247 257 274 282 268 263 280 289 288 289 274 255 276 286 270 246 216 186 228 225 209 203 202 205 207 209 209 209 212 216 217 217
236 236 231 227 238 247 248 251 255 254 262 267 256 251 263 273 271 272 270 277 286 294 270 258 260 243 236 228 213 249 254 252 233 206 201 210 214 212 211 212 215 216 217
230 234 246 243 249 251 253 260 262 256 252 263 261 250 253 258 265 274 268 269 278 294 286 273 276 267 245 225 224 249 260 249 255 241 211 208 215 215 214 214 215 216 217
246 233 244 248 249 244 258 267 265 259 251 258 260 250 233 223 226 258 279 285 288 281 279 273 271 285 273 264 252 265 269 263 252 246 226 221 209 214 213 217 219 218 216
245 237 245 257 270 280 313 279 266 280 271 265 272 270 240 208 215 232 248 246 239 253 265 271 269 270 266 264 265 269 277 280 274 252 238 252 219 220 212 205 207 208 210
253 262 256 244 245 282 283 271 272 275 273 267 271 272 275 267 226 252 247 241 239 239 235 247 266 274 270 260 270 278 277 279 273 271 263 271 253 234 226 206 193 200 204
280 271 266 258 246 263 245 248 259 255 271 272 275 273 266 298 300 309 287 270 256 249 242 235 247 267 277 277 260 260 261 264 263 258 236 256 264 257 249 199 192 193 200
279 270 269 264 255 251 244 244 247 248 252 256 251 259 251 248 272 308 291 286 283 278 265 256 243 247 255 261 264 274 271 270 271 262 227 234 256 264 245 215 199 200 205
275 270 267 271 261 247 234 236 239 253 257 262 254 237 224 221 223 252 264 279 278 283 293 288 269 253 248 245 239 233 244 255 268 268 236 222 248 255 267 227 192 195 208